Location: Noordwijk
(52.2400°N, 4.4500°E)
Time: 00:32:13
(UTC+00:00)

CAS-4B - Pass Details

Date: 10 December 2022
Orbit: 515 x 531 km, 43.0° (Epoch: 26 January)

Event Time Altitude Azimuth Distance (km) Brightness Sun altitude
Exits shadow 03:57:57 11° 132° (SE) 1,697 ? -32.6°
Drops below altitude 10° 03:58:21 10° 127° (SE) 1,772 ? -32.6°
Sets 04:01:31 0° 101° (E) 2,670 ? -32.1°
